Year,Month,Day,Hour,Minute,Value (Times are PST for temperature in C)
2009,03,29,08,17,5.20
2009,03,29,08,18,5.20
2009,03,29,08,19,5.20
2009,03,29,08,20,5.20
2009,03,29,08,21,5.30
2009,03,29,08,22,5.30
2009,03,29,08,23,5.30
2009,03,29,08,24,5.30
2009,03,29,08,25,5.30
2009,03,29,08,26,5.40
2009,03,29,08,27,5.40
2009,03,29,08,28,5.40
2009,03,29,08,29,5.40
2009,03,29,08,30,5.50
2009,03,29,08,31,5.50
2009,03,29,08,32,5.50
2009,03,29,08,33,5.60
2009,03,29,08,34,5.60
2009,03,29,08,35,5.60
2009,03,29,08,36,5.70
2009,03,29,08,37,5.70
2009,03,29,08,38,5.70
2009,03,29,08,39,5.70
2009,03,29,08,40,5.70
2009,03,29,08,41,5.60
2009,03,29,08,42,5.60
2009,03,29,08,43,5.60
2009,03,29,08,44,5.60
2009,03,29,08,45,5.60
2009,03,29,08,46,5.50
2009,03,29,08,47,5.50
2009,03,29,08,48,5.50
2009,03,29,08,49,5.40
2009,03,29,08,50,5.40
2009,03,29,08,51,5.40
2009,03,29,08,52,5.40
2009,03,29,08,53,5.30
2009,03,29,08,54,5.30
2009,03,29,08,55,5.30
2009,03,29,08,56,5.30
2009,03,29,08,57,5.30
2009,03,29,08,58,5.30
2009,03,29,08,59,5.30
2009,03,29,09,00,5.30
2009,03,29,09,01,5.30
2009,03,29,09,02,5.30
2009,03,29,09,03,5.30
2009,03,29,09,04,5.30
2009,03,29,09,05,5.30
2009,03,29,09,06,5.30
2009,03,29,09,07,5.30
2009,03,29,09,08,5.30
2009,03,29,09,09,5.30
2009,03,29,09,10,5.40
2009,03,29,09,11,5.40
2009,03,29,09,12,5.40
2009,03,29,09,13,5.40
2009,03,29,09,14,5.50
2009,03,29,09,15,5.50
2009,03,29,09,16,5.50
2009,03,29,09,17,5.60
2009,03,29,09,18,5.60
2009,03,29,09,19,5.60
2009,03,29,09,20,5.60
2009,03,29,09,21,5.60
2009,03,29,09,22,5.60
2009,03,29,09,23,5.60
2009,03,29,09,24,5.60
2009,03,29,09,25,5.60
2009,03,29,09,26,5.60
2009,03,29,09,27,5.60
2009,03,29,09,28,5.60
2009,03,29,09,29,5.70
2009,03,29,09,30,5.70
2009,03,29,09,31,5.80
2009,03,29,09,32,5.80
2009,03,29,09,33,5.80
2009,03,29,09,34,5.90
2009,03,29,09,35,5.90
2009,03,29,09,36,5.90
2009,03,29,09,37,5.90
2009,03,29,09,38,5.90
2009,03,29,09,39,5.90
2009,03,29,09,40,5.90
2009,03,29,09,41,5.80
2009,03,29,09,42,5.80
2009,03,29,09,43,5.90
2009,03,29,09,44,5.90
2009,03,29,09,45,5.90
2009,03,29,09,46,5.90
2009,03,29,09,47,5.90
2009,03,29,09,48,5.90
2009,03,29,09,49,5.90
2009,03,29,09,50,5.90
2009,03,29,09,51,5.90
2009,03,29,09,52,5.90
2009,03,29,09,53,5.90
2009,03,29,09,54,5.90
2009,03,29,09,55,5.80
2009,03,29,09,56,5.80
2009,03,29,09,57,5.80
2009,03,29,09,58,5.80
2009,03,29,09,59,5.80
2009,03,29,10,00,5.80
2009,03,29,10,01,5.90
2009,03,29,10,02,5.90
2009,03,29,10,03,6.00
2009,03,29,10,04,6.10
2009,03,29,10,05,6.10
2009,03,29,10,06,6.00
2009,03,29,10,07,6.00
2009,03,29,10,08,6.00
2009,03,29,10,09,6.00
2009,03,29,10,10,6.00
2009,03,29,10,11,6.00
2009,03,29,10,12,6.00
2009,03,29,10,13,6.00
2009,03,29,10,14,6.00
2009,03,29,10,15,6.00
2009,03,29,10,16,6.10
2009,03,29,10,17,6.10
2009,03,29,10,18,6.20
2009,03,29,10,19,6.20
2009,03,29,10,20,6.30
2009,03,29,10,21,6.30
2009,03,29,10,22,6.30
2009,03,29,10,23,6.30
2009,03,29,10,24,6.40
2009,03,29,10,25,6.40
2009,03,29,10,26,6.40
2009,03,29,10,27,6.30
2009,03,29,10,28,6.30
2009,03,29,10,29,6.30
2009,03,29,10,30,6.30
2009,03,29,10,31,6.30
2009,03,29,10,32,6.30
2009,03,29,10,33,6.30
2009,03,29,10,34,6.30
2009,03,29,10,35,6.30
2009,03,29,10,36,6.40
2009,03,29,10,37,6.50
2009,03,29,10,38,6.50
2009,03,29,10,39,6.50
2009,03,29,10,40,6.40
2009,03,29,10,41,6.30
2009,03,29,10,42,6.40
2009,03,29,10,43,6.40
2009,03,29,10,44,6.40
2009,03,29,10,45,6.40
2009,03,29,10,46,6.50
2009,03,29,10,47,6.50
2009,03,29,10,48,6.60
2009,03,29,10,49,6.60
2009,03,29,10,50,6.60
2009,03,29,10,51,6.60
2009,03,29,10,52,6.60
2009,03,29,10,53,6.60
2009,03,29,10,54,6.60
2009,03,29,10,55,6.60
2009,03,29,10,56,6.60
2009,03,29,10,57,6.60
2009,03,29,10,58,6.60
2009,03,29,10,59,6.50
2009,03,29,11,00,6.50
2009,03,29,11,01,6.50
2009,03,29,11,02,6.50
2009,03,29,11,03,6.60
2009,03,29,11,04,6.60
2009,03,29,11,05,6.70
2009,03,29,11,06,6.80
2009,03,29,11,07,6.80
2009,03,29,11,08,6.90
2009,03,29,11,09,7.00
2009,03,29,11,10,7.10
2009,03,29,11,11,7.10
2009,03,29,11,12,7.10
2009,03,29,11,13,7.10
2009,03,29,11,14,7.10
2009,03,29,11,15,7.10
2009,03,29,11,16,7.00
2009,03,29,11,17,7.00
2009,03,29,11,18,6.90
2009,03,29,11,19,6.90
2009,03,29,11,20,6.90
2009,03,29,11,21,7.00
2009,03,29,11,22,7.00
2009,03,29,11,23,7.10
2009,03,29,11,24,7.10
2009,03,29,11,25,7.10
2009,03,29,11,26,7.10
2009,03,29,11,27,7.10
2009,03,29,11,28,7.00
2009,03,29,11,29,7.00
2009,03,29,11,30,7.00
2009,03,29,11,31,7.00
2009,03,29,11,32,7.00
2009,03,29,11,33,7.00
2009,03,29,11,34,7.00
2009,03,29,11,35,7.00
2009,03,29,11,36,7.00
2009,03,29,11,37,7.10
2009,03,29,11,38,7.00
2009,03,29,11,39,7.10
2009,03,29,11,40,7.10
2009,03,29,11,41,7.10
2009,03,29,11,42,7.10
2009,03,29,11,43,7.10
2009,03,29,11,44,7.10
2009,03,29,11,45,7.00
2009,03,29,11,46,7.00
2009,03,29,11,47,7.10
2009,03,29,11,48,7.10
2009,03,29,11,49,7.20
2009,03,29,11,50,7.30
2009,03,29,11,51,7.30
2009,03,29,11,52,7.40
2009,03,29,11,53,7.40
2009,03,29,11,54,7.30
2009,03,29,11,55,7.30
2009,03,29,11,56,7.30
2009,03,29,11,57,7.20
2009,03,29,11,58,7.20
2009,03,29,11,59,7.20
2009,03,29,12,00,7.20
2009,03,29,12,01,7.30
2009,03,29,12,02,7.30
2009,03,29,12,03,7.40
2009,03,29,12,04,7.40
2009,03,29,12,05,7.40
2009,03,29,12,06,7.40
2009,03,29,12,07,7.40
2009,03,29,12,08,7.40
2009,03,29,12,09,7.40
2009,03,29,12,10,7.40
2009,03,29,12,11,7.30
2009,03,29,12,12,7.20
2009,03,29,12,13,7.20
2009,03,29,12,14,7.20
2009,03,29,12,15,7.20
2009,03,29,12,16,7.20
2009,03,29,12,17,7.20
2009,03,29,12,18,7.30
2009,03,29,12,19,7.40
2009,03,29,12,20,7.50
2009,03,29,12,21,7.50
2009,03,29,12,22,7.60
2009,03,29,12,23,7.70
2009,03,29,12,24,7.70
2009,03,29,12,25,7.70
2009,03,29,12,26,7.70
2009,03,29,12,27,7.70
2009,03,29,12,28,7.70
2009,03,29,12,29,7.70
2009,03,29,12,30,7.70
2009,03,29,12,31,7.60
2009,03,29,12,32,7.60
2009,03,29,12,33,7.50
2009,03,29,12,34,7.50
2009,03,29,12,35,7.50
2009,03,29,12,36,7.50
2009,03,29,12,37,7.60
2009,03,29,12,38,7.60
2009,03,29,12,39,7.70
2009,03,29,12,40,7.70
2009,03,29,12,41,7.70
2009,03,29,12,42,7.70
2009,03,29,12,43,7.60
2009,03,29,12,44,7.60
2009,03,29,12,45,7.70
2009,03,29,12,46,7.70
2009,03,29,12,47,7.80
2009,03,29,12,48,7.80
2009,03,29,12,49,7.90
2009,03,29,12,50,7.90
2009,03,29,12,51,7.90
2009,03,29,12,52,8.00
2009,03,29,12,53,8.00
2009,03,29,12,54,8.10
2009,03,29,12,55,8.10
2009,03,29,12,56,8.00
2009,03,29,12,57,8.00
2009,03,29,12,58,8.00
2009,03,29,12,59,8.10
2009,03,29,13,00,8.10
2009,03,29,13,01,8.20
2009,03,29,13,02,8.30
2009,03,29,13,03,8.30
2009,03,29,13,04,8.30
2009,03,29,13,05,8.20
2009,03,29,13,06,8.20
2009,03,29,13,07,8.20
2009,03,29,13,08,8.20
2009,03,29,13,09,8.20
2009,03,29,13,10,8.10
2009,03,29,13,11,8.10
2009,03,29,13,12,8.00
2009,03,29,13,13,8.10
2009,03,29,13,14,8.10
2009,03,29,13,15,8.10
2009,03,29,13,16,8.10
2009,03,29,13,17,8.10
2009,03,29,13,18,8.10
2009,03,29,13,19,8.10
2009,03,29,13,20,8.10
2009,03,29,13,21,8.10
2009,03,29,13,22,8.20
2009,03,29,13,23,8.20
2009,03,29,13,24,8.30
2009,03,29,13,25,8.30
2009,03,29,13,26,8.30
2009,03,29,13,27,8.40
2009,03,29,13,28,8.40
2009,03,29,13,29,8.40
2009,03,29,13,30,8.40
2009,03,29,13,31,8.40
2009,03,29,13,32,8.50
2009,03,29,13,33,8.60
2009,03,29,13,34,8.50
2009,03,29,13,35,8.50
2009,03,29,13,36,8.50
2009,03,29,13,37,8.60
2009,03,29,13,38,8.60
2009,03,29,13,39,8.70
2009,03,29,13,40,8.80
2009,03,29,13,41,8.90
2009,03,29,13,42,8.90
2009,03,29,13,43,8.90
2009,03,29,13,44,8.90
2009,03,29,13,45,8.90
2009,03,29,13,46,8.90
2009,03,29,13,47,8.80
2009,03,29,13,48,8.80
2009,03,29,13,49,8.80
2009,03,29,13,50,8.80
2009,03,29,13,51,8.70
2009,03,29,13,52,8.70
2009,03,29,13,53,8.60
2009,03,29,13,54,8.60
2009,03,29,13,55,8.60
2009,03,29,13,56,8.60
2009,03,29,13,57,8.70
2009,03,29,13,58,8.70
2009,03,29,13,59,8.70
2009,03,29,14,00,8.70
2009,03,29,14,01,8.80
2009,03,29,14,02,8.80
2009,03,29,14,03,8.90
2009,03,29,14,04,8.90
2009,03,29,14,05,8.90
2009,03,29,14,06,8.90
2009,03,29,14,07,9.00
2009,03,29,14,08,9.00
2009,03,29,14,09,9.10
2009,03,29,14,10,9.10
2009,03,29,14,11,9.00
2009,03,29,14,12,9.10
2009,03,29,14,13,9.10
2009,03,29,14,14,9.20
2009,03,29,14,15,9.40
2009,03,29,14,16,9.50
2009,03,29,14,17,9.60
2009,03,29,14,18,9.50
2009,03,29,14,19,9.40
2009,03,29,14,20,9.30
2009,03,29,14,21,9.20
2009,03,29,14,22,9.20
2009,03,29,14,23,9.20
2009,03,29,14,24,9.30
2009,03,29,14,25,9.40
2009,03,29,14,26,9.50
2009,03,29,14,27,9.60
2009,03,29,14,28,9.70
2009,03,29,14,29,9.80
2009,03,29,14,30,9.80
2009,03,29,14,31,9.90
2009,03,29,14,32,9.90
2009,03,29,14,33,9.90
2009,03,29,14,34,9.90
2009,03,29,14,35,9.90
2009,03,29,14,36,9.90
2009,03,29,14,37,9.90
2009,03,29,14,38,9.90
2009,03,29,14,39,9.90
2009,03,29,14,40,10.00
2009,03,29,14,41,10.00
2009,03,29,14,42,10.10
2009,03,29,14,43,10.10
2009,03,29,14,44,10.20
2009,03,29,14,45,10.20
2009,03,29,14,46,10.20
2009,03,29,14,47,10.20
2009,03,29,14,48,10.20
2009,03,29,14,49,10.30
2009,03,29,14,50,10.40
2009,03,29,14,51,10.40
2009,03,29,14,52,10.50
2009,03,29,14,53,10.50
2009,03,29,14,54,10.50
2009,03,29,14,55,10.50
2009,03,29,14,56,10.50
2009,03,29,14,57,10.50
2009,03,29,14,58,10.50
2009,03,29,14,59,10.50
2009,03,29,15,00,10.50
2009,03,29,15,01,10.40
2009,03,29,15,02,10.40
2009,03,29,15,03,10.30
2009,03,29,15,04,10.20
2009,03,29,15,05,10.10
2009,03,29,15,06,10.00
2009,03,29,15,07,9.90
2009,03,29,15,08,9.90
2009,03,29,15,09,9.90
2009,03,29,15,10,9.80
2009,03,29,15,11,9.80
2009,03,29,15,12,9.70
2009,03,29,15,13,9.70
2009,03,29,15,14,9.80
2009,03,29,15,15,9.80
2009,03,29,15,16,9.90
2009,03,29,15,17,9.90
2009,03,29,15,18,10.00
2009,03,29,15,19,10.10
2009,03,29,15,20,10.10
2009,03,29,15,21,10.10
2009,03,29,15,22,10.20
2009,03,29,15,23,10.20
2009,03,29,15,24,10.30
2009,03,29,15,25,10.30
2009,03,29,15,26,10.30
2009,03,29,15,27,10.30
2009,03,29,15,28,10.30
2009,03,29,15,29,10.30
2009,03,29,15,30,10.30
2009,03,29,15,31,10.40
2009,03,29,15,32,10.30
2009,03,29,15,33,10.30
2009,03,29,15,34,10.20
2009,03,29,15,35,10.20
2009,03,29,15,36,10.20
2009,03,29,15,37,10.20
2009,03,29,15,38,10.10
2009,03,29,15,39,10.10
2009,03,29,15,40,10.10
2009,03,29,15,41,10.10
2009,03,29,15,42,10.10
2009,03,29,15,43,10.10
2009,03,29,15,44,10.00
2009,03,29,15,45,9.90
2009,03,29,15,46,10.00
2009,03,29,15,47,10.00
2009,03,29,15,48,10.00
2009,03,29,15,49,10.00
2009,03,29,15,50,10.00
2009,03,29,15,51,10.10
2009,03,29,15,52,10.10
2009,03,29,15,53,10.10
2009,03,29,15,54,10.10
2009,03,29,15,55,10.20
2009,03,29,15,56,10.10
2009,03,29,15,57,10.10
2009,03,29,15,58,10.10
2009,03,29,15,59,10.00
2009,03,29,16,00,10.00
2009,03,29,16,01,10.00
2009,03,29,16,02,9.90
2009,03,29,16,03,9.90
2009,03,29,16,04,9.90
2009,03,29,16,05,9.80
2009,03,29,16,06,9.80
2009,03,29,16,07,9.80
2009,03,29,16,08,9.80
2009,03,29,16,09,9.80
2009,03,29,16,10,9.80
2009,03,29,16,11,9.70
2009,03,29,16,12,9.70
2009,03,29,16,13,9.70
2009,03,29,16,14,9.70
2009,03,29,16,15,9.70
2009,03,29,16,16,9.70
2009,03,29,16,17,9.60
2009,03,29,16,18,9.60
2009,03,29,16,19,9.50
2009,03,29,16,20,9.50
2009,03,29,16,21,9.60
2009,03,29,16,22,9.60
2009,03,29,16,23,9.60
2009,03,29,16,24,9.60
2009,03,29,16,25,9.70
2009,03,29,16,26,9.70
2009,03,29,16,27,9.70
2009,03,29,16,28,9.70
2009,03,29,16,29,9.80
2009,03,29,16,30,9.80
2009,03,29,16,31,9.80
2009,03,29,16,32,9.80
2009,03,29,16,33,9.90
2009,03,29,16,34,9.90
2009,03,29,16,35,9.90
2009,03,29,16,36,9.90
2009,03,29,16,37,9.90
2009,03,29,16,38,9.90
2009,03,29,16,39,9.90
2009,03,29,16,40,9.90
2009,03,29,16,41,10.00
2009,03,29,16,42,10.00
2009,03,29,16,43,10.00
2009,03,29,16,44,10.10
2009,03,29,16,45,10.10
2009,03,29,16,46,10.10
2009,03,29,16,47,10.10
2009,03,29,16,48,10.10
2009,03,29,16,49,10.10
2009,03,29,16,50,10.10
2009,03,29,16,51,10.10
2009,03,29,16,52,10.10
2009,03,29,16,53,10.10
2009,03,29,16,54,10.10
2009,03,29,16,55,10.10
2009,03,29,16,56,10.10
2009,03,29,16,57,10.10
2009,03,29,16,58,10.10
2009,03,29,16,59,10.10
2009,03,29,17,00,10.20
2009,03,29,17,01,10.20
2009,03,29,17,02,10.20
2009,03,29,17,03,10.20
2009,03,29,17,04,10.20
2009,03,29,17,05,10.20
2009,03,29,17,06,10.30
2009,03,29,17,07,10.30
2009,03,29,17,08,10.30
2009,03,29,17,09,10.30
2009,03,29,17,10,10.30
2009,03,29,17,11,10.30
2009,03,29,17,12,10.30
2009,03,29,17,13,10.30
2009,03,29,17,14,10.20
2009,03,29,17,15,10.20
2009,03,29,17,16,10.20
2009,03,29,17,17,10.20
2009,03,29,17,18,10.20
2009,03,29,17,19,10.20
2009,03,29,17,20,10.10
2009,03,29,17,21,10.10
2009,03,29,17,22,10.10
2009,03,29,17,23,10.10
2009,03,29,17,24,10.00
2009,03,29,17,25,10.00
2009,03,29,17,26,9.90
2009,03,29,17,27,9.90
2009,03,29,17,28,9.80
2009,03,29,17,29,9.80
2009,03,29,17,30,9.80
2009,03,29,17,31,9.80
2009,03,29,17,32,9.80
2009,03,29,17,33,9.80
2009,03,29,17,34,9.80
2009,03,29,17,35,9.80
2009,03,29,17,36,9.80
2009,03,29,17,37,9.80
2009,03,29,17,38,9.80
2009,03,29,17,39,9.80
2009,03,29,17,40,9.80
2009,03,29,17,41,9.80
2009,03,29,17,42,9.80
2009,03,29,17,43,9.80
2009,03,29,17,44,9.80
2009,03,29,17,45,9.80
2009,03,29,17,46,9.80
2009,03,29,17,47,9.80
2009,03,29,17,48,9.80
2009,03,29,17,49,9.80
2009,03,29,17,50,9.80
2009,03,29,17,51,9.80
2009,03,29,17,52,9.80
2009,03,29,17,53,9.80
2009,03,29,17,54,9.80
2009,03,29,17,55,9.90
2009,03,29,17,56,9.90
2009,03,29,17,57,9.80
2009,03,29,17,58,9.80
2009,03,29,17,59,9.80
2009,03,29,18,00,9.80
2009,03,29,18,01,9.80
2009,03,29,18,02,9.80
2009,03,29,18,03,9.80
2009,03,29,18,04,9.80
2009,03,29,18,05,9.80
2009,03,29,18,06,9.80
2009,03,29,18,07,9.80
2009,03,29,18,08,9.80
2009,03,29,18,09,9.80
2009,03,29,18,10,9.80
2009,03,29,18,11,9.90
2009,03,29,18,12,9.90
2009,03,29,18,13,9.90
2009,03,29,18,14,9.90
2009,03,29,18,15,9.90
2009,03,29,18,16,9.90
2009,03,29,18,17,9.90
2009,03,29,18,18,9.90
2009,03,29,18,19,9.90
2009,03,29,18,20,10.00
2009,03,29,18,21,10.00
2009,03,29,18,22,10.00
2009,03,29,18,23,10.00
2009,03,29,18,24,10.10
2009,03,29,18,25,10.10
2009,03,29,18,26,10.20
2009,03,29,18,27,10.20
2009,03,29,18,28,10.30
2009,03,29,18,29,10.30
2009,03,29,18,30,10.30
2009,03,29,18,31,10.30
2009,03,29,18,32,10.30
2009,03,29,18,33,10.30
2009,03,29,18,34,10.30
2009,03,29,18,35,10.20
2009,03,29,18,36,10.20
2009,03,29,18,37,10.20
2009,03,29,18,38,10.20
2009,03,29,18,39,10.20
2009,03,29,18,40,10.10
2009,03,29,18,41,10.10
2009,03,29,18,42,10.10
2009,03,29,18,43,10.10
2009,03,29,18,44,10.10
2009,03,29,18,45,10.00
2009,03,29,18,46,10.00
2009,03,29,18,47,10.00
2009,03,29,18,48,9.90
2009,03,29,18,49,9.90
2009,03,29,18,50,9.90
2009,03,29,18,51,9.90
2009,03,29,18,52,9.90
2009,03,29,18,53,9.90
2009,03,29,18,54,9.90
2009,03,29,18,55,9.80
2009,03,29,18,56,9.80
2009,03,29,18,57,9.80
2009,03,29,18,58,9.80
2009,03,29,18,59,9.80
2009,03,29,19,00,9.80
2009,03,29,19,01,9.70
2009,03,29,19,02,9.70
2009,03,29,19,03,9.70
2009,03,29,19,04,9.70
2009,03,29,19,05,9.70
2009,03,29,19,06,9.70
2009,03,29,19,07,9.60
2009,03,29,19,08,9.60
2009,03,29,19,09,9.60
2009,03,29,19,10,9.60
2009,03,29,19,11,9.60
2009,03,29,19,12,9.60
2009,03,29,19,13,9.50
2009,03,29,19,14,9.50
2009,03,29,19,15,9.40
2009,03,29,19,16,9.40
2009,03,29,19,17,9.40
2009,03,29,19,18,9.40
2009,03,29,19,19,9.40
2009,03,29,19,20,9.40
2009,03,29,19,21,9.40
2009,03,29,19,22,9.40
2009,03,29,19,23,9.40
2009,03,29,19,24,9.40
2009,03,29,19,25,9.40
2009,03,29,19,26,9.40
